DLH712 EDDF-RKSI

Flight info

Callsign DLH712
Flight time N/A
Altitude 31000
Route SULUS7S SULUS Z650 VEMUT/N0484F350 DCT PEPIK DCT BUDOP DCT DINRO N743 UDROS/N0487F370 UM859 KARDE UN644 ROLIN DCT TAGAR DCT BT DCT BARAD M747 SUBUT T916 BALUN/K0895F370 T916 ERTUZ/K0883F390 T916 PIGAL M610 RULAD/K0885S1190 A343 POSOT B215 FKG W188 LIKMI W270 BIVOR/K0893S1250 W270 DKO W69 HUR B339 LADIX W34 VAPGU W100 ORAVA W201 UNSEK A326 DONVO G597 AGAVO/N0459F290 Y644 REBIT REBIT2H
Aircraft A359/H-SADE2E3GHIJ1J2J3J4J5M1P2RWXYZ/LB1D1

Departure

Time N/A
Airport Frankfurt Main Airport (EDDF)

Arrival

Time 2026-05-06 10:20
Airport Incheon International Airport (RKSI)
Time Latitude Longitude Altitude Speed Heading
2026-05-06 09:33 38.37967 121.65989 40793 ft 559 kts 104°
2026-05-06 09:33 38.37705 121.67538 40791 ft 559 kts 104°
2026-05-06 09:34 38.36076 121.77191 40804 ft 556 kts 104°
2026-05-06 09:34 38.34449 121.86814 40802 ft 555 kts 104°
2026-05-06 09:35 38.32818 121.96410 40804 ft 554 kts 104°
2026-05-06 09:35 38.31182 122.05995 40809 ft 554 kts 104°
2026-05-06 09:36 38.29538 122.15572 40813 ft 554 kts 104°
2026-05-06 09:36 38.27898 122.25078 40818 ft 553 kts 104°
2026-05-06 09:37 38.26410 122.34691 40840 ft 554 kts 102°
2026-05-06 09:37 38.24279 122.44052 40831 ft 548 kts 120°
2026-05-06 09:37 38.22372 122.48203 40831 ft 540 kts 131°
2026-05-06 09:38 38.19992 122.51836 40823 ft 533 kts 138°
2026-05-06 09:38 38.14906 122.58561 40834 ft 532 kts 141°
2026-05-06 09:39 38.11842 122.62436 40837 ft 531 kts 141°
2026-05-06 09:39 38.06610 122.69070 40844 ft 532 kts 140°
2026-05-06 09:40 38.01424 122.75772 40856 ft 532 kts 140°
2026-05-06 09:40 37.93672 122.85830 40864 ft 532 kts 140°
2026-05-06 09:41 37.88494 122.92525 40859 ft 532 kts 140°
2026-05-06 09:41 37.83304 122.99214 40873 ft 533 kts 140°
2026-05-06 09:42 37.78090 123.05920 40885 ft 534 kts 140°
2026-05-06 09:42 37.72915 123.12563 40884 ft 534 kts 140°
2026-05-06 09:43 37.67699 123.19243 40888 ft 534 kts 140°
2026-05-06 09:43 37.62463 123.25934 40898 ft 536 kts 140°
2026-05-06 09:44 37.57255 123.32671 40897 ft 539 kts 135°
2026-05-06 09:44 37.52590 123.40115 40898 ft 542 kts 131°
2026-05-06 09:45 37.48060 123.47714 40913 ft 543 kts 130°
2026-05-06 09:45 37.44301 123.54051 40920 ft 544 kts 130°
2026-05-06 09:46 37.39733 123.61712 40919 ft 543 kts 131°
2026-05-06 09:46 37.35213 123.69254 40914 ft 543 kts 131°
2026-05-06 09:47 37.30654 123.76834 40928 ft 544 kts 131°
2026-05-06 09:47 37.28368 123.80630 40803 ft 544 kts 131°
2026-05-06 09:47 37.26088 123.84412 40215 ft 543 kts 131°
2026-05-06 09:48 37.23803 123.88199 39533 ft 545 kts 131°
2026-05-06 09:48 37.21517 123.91990 38915 ft 546 kts 131°
2026-05-06 09:48 37.19461 123.96018 38224 ft 552 kts 120°
2026-05-06 09:48 37.17956 124.00453 37525 ft 554 kts 108°
2026-05-06 09:49 37.17138 124.05174 36849 ft 553 kts 95°
2026-05-06 09:49 37.16994 124.09980 36164 ft 552 kts 88°
2026-05-06 09:49 37.17091 124.14792 35459 ft 552 kts 86°
2026-05-06 09:49 37.17276 124.19604 34698 ft 553 kts 86°
2026-05-06 09:50 37.17493 124.24415 34037 ft 552 kts 86°
2026-05-06 09:50 37.17697 124.29208 33458 ft 547 kts 87°
2026-05-06 09:50 37.17853 124.33962 32881 ft 542 kts 88°
2026-05-06 09:50 37.17979 124.38663 32346 ft 537 kts 88°
2026-05-06 09:51 37.18089 124.43317 31812 ft 532 kts 88°
2026-05-06 09:51 37.18194 124.47950 31285 ft 528 kts 89°
2026-05-06 09:51 37.18292 124.52538 30754 ft 524 kts 89°
2026-05-06 09:51 37.18389 124.57086 30251 ft 521 kts 89°
2026-05-06 09:52 37.18485 124.61619 29680 ft 517 kts 89°
2026-05-06 09:52 37.18580 124.66045 29153 ft 512 kts 89°
2026-05-06 09:52 37.18674 124.70484 28639 ft 506 kts 89°
2026-05-06 09:52 37.18767 124.74881 28127 ft 501 kts 88°
2026-05-06 09:53 37.18857 124.79222 27635 ft 496 kts 88°
2026-05-06 09:53 37.18946 124.83529 27132 ft 492 kts 88°
2026-05-06 09:53 37.19034 124.87806 26643 ft 487 kts 89°
2026-05-06 09:53 37.19117 124.92041 26129 ft 483 kts 89°
2026-05-06 09:54 37.19197 124.96230 25644 ft 479 kts 89°
2026-05-06 09:54 37.19275 125.00394 25131 ft 476 kts 88°
2026-05-06 09:54 37.19352 125.04531 24662 ft 472 kts 89°
2026-05-06 09:54 37.19427 125.08631 24154 ft 469 kts 89°
2026-05-06 09:55 37.19500 125.12716 23639 ft 466 kts 89°
2026-05-06 09:55 37.19571 125.16766 23091 ft 463 kts 89°
2026-05-06 09:55 37.19641 125.20785 22570 ft 458 kts 89°
2026-05-06 09:55 37.19708 125.24757 22064 ft 453 kts 89°
2026-05-06 09:56 37.19773 125.28684 21570 ft 447 kts 89°
2026-05-06 09:56 37.19837 125.32567 21079 ft 443 kts 89°
2026-05-06 09:56 37.19898 125.36413 20599 ft 438 kts 89°
2026-05-06 09:56 37.19958 125.40224 20095 ft 434 kts 89°
2026-05-06 09:57 37.20015 125.43942 19619 ft 431 kts 89°
2026-05-06 09:57 37.20210 125.47682 19139 ft 426 kts 79°
2026-05-06 09:57 37.21193 125.51137 18680 ft 419 kts 59°
2026-05-06 09:57 37.22681 125.54239 18199 ft 414 kts 55°
2026-05-06 09:58 37.24227 125.57279 17685 ft 410 kts 56°
2026-05-06 09:58 37.25742 125.60290 17225 ft 405 kts 56°
2026-05-06 09:58 37.27225 125.63272 16741 ft 401 kts 56°
2026-05-06 09:58 37.28686 125.66229 16291 ft 397 kts 56°
2026-05-06 09:59 37.30130 125.69167 15842 ft 394 kts 57°
2026-05-06 09:59 37.31562 125.72090 15364 ft 391 kts 57°
2026-05-06 09:59 37.32736 125.75162 14923 ft 390 kts 73°
2026-05-06 09:59 37.33007 125.78496 14478 ft 384 kts 97°
2026-05-06 10:00 37.32726 125.81038 14134 ft 380 kts 103°
2026-05-06 10:00 37.32294 125.83898 13717 ft 378 kts 103°
2026-05-06 10:00 37.31804 125.87130 13240 ft 375 kts 103°
2026-05-06 10:00 37.31255 125.90307 12789 ft 369 kts 110°
2026-05-06 10:01 37.30090 125.93100 12369 ft 358 kts 129°
2026-05-06 10:01 37.28559 125.95547 11927 ft 353 kts 133°
2026-05-06 10:01 37.26999 125.97917 11505 ft 350 kts 133°
2026-05-06 10:01 37.25464 126.00276 11085 ft 348 kts 131°
2026-05-06 10:02 37.24367 126.02911 10656 ft 349 kts 107°
2026-05-06 10:02 37.24251 126.05930 10321 ft 344 kts 78°
2026-05-06 10:02 37.25178 126.08583 10182 ft 326 kts 51°
2026-05-06 10:02 37.26613 126.10701 10061 ft 311 kts 44°
2026-05-06 10:03 37.28320 126.12221 9912 ft 293 kts 17°
2026-05-06 10:03 37.30241 126.12480 9700 ft 268 kts 345°
2026-05-06 10:03 37.31844 126.11568 9401 ft 243 kts 321°
2026-05-06 10:03 37.33183 126.10347 9168 ft 236 kts 319°
2026-05-06 10:04 37.34494 126.09119 8947 ft 234 kts 319°
2026-05-06 10:04 37.35808 126.07911 8822 ft 234 kts 320°
2026-05-06 10:04 37.37126 126.06708 8692 ft 234 kts 320°
2026-05-06 10:04 37.38446 126.05511 8559 ft 234 kts 320°
2026-05-06 10:05 37.39769 126.04318 8423 ft 234 kts 320°
2026-05-06 10:05 37.41096 126.03127 8306 ft 234 kts 320°
2026-05-06 10:05 37.42421 126.01937 8140 ft 233 kts 320°
2026-05-06 10:05 37.43832 126.00973 8020 ft 239 kts 339°
2026-05-06 10:06 37.45505 126.00946 7887 ft 249 kts 14°
2026-05-06 10:06 37.46938 126.02159 7741 ft 253 kts 48°
2026-05-06 10:06 37.48006 126.03938 7597 ft 255 kts 54°
2026-05-06 10:06 37.49017 126.05778 7443 ft 255 kts 54°
2026-05-06 10:07 37.49838 126.07734 7304 ft 254 kts 75°
2026-05-06 10:07 37.49817 126.09894 7164 ft 246 kts 113°
2026-05-06 10:07 37.48878 126.11607 7035 ft 235 kts 144°
2026-05-06 10:07 37.47580 126.12845 6894 ft 234 kts 149°
2026-05-06 10:08 37.46239 126.14009 6758 ft 234 kts 149°
2026-05-06 10:08 37.44910 126.15175 6624 ft 233 kts 149°
2026-05-06 10:08 37.43585 126.16346 6473 ft 231 kts 149°
2026-05-06 10:08 37.42286 126.17493 6358 ft 231 kts 149°
2026-05-06 10:09 37.40978 126.18654 6218 ft 230 kts 149°
2026-05-06 10:09 37.39674 126.19820 6084 ft 229 kts 148°
2026-05-06 10:09 37.38375 126.20983 5951 ft 229 kts 149°
2026-05-06 10:09 37.37086 126.22155 5816 ft 227 kts 146°
2026-05-06 10:10 37.36076 126.23704 5682 ft 236 kts 117°
2026-05-06 10:10 37.35921 126.25758 5556 ft 243 kts 77°
2026-05-06 10:10 37.36683 126.27661 5401 ft 246 kts 55°
2026-05-06 10:10 37.37697 126.29407 5280 ft 247 kts 53°
2026-05-06 10:11 37.38723 126.31136 5116 ft 246 kts 53°
2026-05-06 10:11 37.39948 126.32617 4978 ft 246 kts 28°
2026-05-06 10:11 37.41565 126.33056 4855 ft 236 kts 348°
2026-05-06 10:11 37.43019 126.32312 4720 ft 227 kts 322°
2026-05-06 10:12 37.44313 126.31171 4589 ft 228 kts 319°
2026-05-06 10:12 37.45593 126.29994 4455 ft 228 kts 319°
2026-05-06 10:12 37.46876 126.28831 4325 ft 227 kts 319°
2026-05-06 10:12 37.48162 126.27672 4198 ft 227 kts 319°
2026-05-06 10:13 37.49447 126.26515 4065 ft 227 kts 319°
2026-05-06 10:13 37.50732 126.25361 3939 ft 226 kts 319°
2026-05-06 10:13 37.52014 126.24216 3809 ft 226 kts 319°
2026-05-06 10:13 37.53298 126.23073 3674 ft 226 kts 318°
2026-05-06 10:14 37.54573 126.21928 3554 ft 225 kts 318°
2026-05-06 10:14 37.55908 126.20887 3402 ft 231 kts 333°
2026-05-06 10:14 37.57527 126.20803 3281 ft 242 kts 14°
2026-05-06 10:14 37.58899 126.22010 3157 ft 246 kts 54°
2026-05-06 10:15 37.59778 126.23859 3019 ft 247 kts 63°
2026-05-06 10:15 37.60601 126.25757 2867 ft 246 kts 64°
2026-05-06 10:15 37.60862 126.27821 2691 ft 238 kts 105°
2026-05-06 10:15 37.60143 126.29589 2589 ft 221 kts 141°
2026-05-06 10:16 37.58971 126.30680 2505 ft 201 kts 157°
2026-05-06 10:16 37.57817 126.31575 2429 ft 188 kts 154°
2026-05-06 10:16 37.56782 126.32482 2354 ft 175 kts 151°
2026-05-06 10:16 37.55799 126.33374 2194 ft 173 kts 152°
2026-05-06 10:17 37.54846 126.34229 1979 ft 164 kts 154°
2026-05-06 10:17 37.53954 126.35026 1756 ft 150 kts 154°
2026-05-06 10:17 37.53132 126.35760 1538 ft 138 kts 155°
2026-05-06 10:17 37.52367 126.36442 1379 ft 134 kts 154°
2026-05-06 10:18 37.51606 126.37120 1200 ft 134 kts 153°
2026-05-06 10:18 37.50854 126.37792 1023 ft 134 kts 152°
2026-05-06 10:18 37.50088 126.38475 839 ft 133 kts 150°
2026-05-06 10:18 37.49330 126.39123 661 ft 131 kts 150°
2026-05-06 10:19 37.48604 126.39788 480 ft 129 kts 148°
2026-05-06 10:19 37.47859 126.40465 311 ft 131 kts 148°
2026-05-06 10:19 37.47137 126.41111 162 ft 129 kts 147°
2026-05-06 10:19 37.46398 126.41781 41 ft 128 kts 148°
2026-05-06 10:20 37.45759 126.42338 39 ft 93 kts 144°
2026-05-06 10:20 37.45326 126.42725 39 ft 68 kts 145°
2026-05-06 10:20 37.44996 126.43024 39 ft 45 kts 138°
2026-05-06 10:20 37.44858 126.43284 39 ft 19 kts 115°
2026-05-06 10:21 37.44800 126.43438 39 ft 20 kts 115°
2026-05-06 10:21 37.44737 126.43546 39 ft 14 kts 96°
2026-05-06 10:21 37.44752 126.43602 39 ft 0 kts 57°
2026-05-06 10:21 37.44757 126.43612 39 ft 6 kts 57°
2026-05-06 10:22 37.44803 126.43698 39 ft 18 kts 55°
2026-05-06 10:22 37.44881 126.43833 39 ft 17 kts 54°
2026-05-06 10:22 37.44913 126.43973 39 ft 17 kts 74°
2026-05-06 10:22 37.44969 126.44088 39 ft 14 kts 56°
2026-05-06 10:23 37.44988 126.44185 39 ft 11 kts 118°
2026-05-06 10:23 37.44924 126.44255 39 ft 12 kts 146°
2026-05-06 10:23 37.44848 126.44320 39 ft 15 kts 146°
2026-05-06 10:23 37.44758 126.44399 39 ft 17 kts 144°
2026-05-06 10:24 37.44694 126.44457 39 ft 9 kts 143°
2026-05-06 10:24 37.44641 126.44512 38 ft 11 kts 128°
2026-05-06 10:24 37.44622 126.44612 39 ft 14 kts 94°
2026-05-06 10:24 37.44619 126.44656 39 ft 5 kts 94°
2026-05-06 10:25 37.44617 126.44695 39 ft 3 kts 93°
2026-05-06 10:25 37.44617 126.44702 39 ft 1 kts 93°